This is the latest recevied weather packets stored in our database for station/object N2XGL-1. If no packets are shown the sender has not sent any weather packets the latest 1 day(s).
| Time | Temp. | Humidity | Pressure | Rain* | Wind** | Luminosity | Snow |
|---|---|---|---|---|---|---|---|
| 1836274566 | 17.22° C | 61% | 1011.5 hPa | 0 mm | 0.45 m/s, 0° | - | - |
| 1836274297 | 17.22° C | 61% | 1011.5 hPa | 0 mm | 0.45 m/s, 0° | - | - |
| 1836274137 | 17.22° C | 62% | 1011.8 hPa | 0 mm | 0 m/s | - | - |
| 1778033953 | 0.56° C | 94% | 1014 hPa | 0 mm | 0 m/s | - | - |
| 1778033373 | 0.56° C | 94% | 1013.7 hPa | 0 mm | 0.45 m/s, 0° | - | - |
| 1778032793 | 0.56° C | 94% | 1013.7 hPa | 0 mm | 0.45 m/s, 292° | - | - |
| 1778032756 | 0.56° C | 94% | 1013.6 hPa | 0 mm | 0.45 m/s, 338° | - | - |
| 1778032258 | 0.56° C | 94% | 1013.6 hPa | 0 mm | 0.45 m/s, 338° | - | - |
| 1778032177 | 0.56° C | 94% | 1013.4 hPa | 0 mm | 0.45 m/s, 338° | - | - |
| 1778031693 | 0.56° C | 94% | 1013.4 hPa | 0 mm | 0.45 m/s, 338° | - | - |
| 1778031559 | 0.56° C | 94% | 1013.2 hPa | 0 mm | 0 m/s | - | - |
| 1778031161 | 0.56° C | 94% | 1013.2 hPa | 0 mm | 0 m/s | - | - |
| 1778030678 | 0.56° C | 94% | 1013 hPa | 0.25 mm | 0.45 m/s, 315° | - | - |
| 1778030134 | 0.56° C | 94% | 1012.8 hPa | 0.25 mm | 0.45 m/s, 0° | - | - |
| 1778029618 | 0.56° C | 94% | 1012.9 hPa | 0.25 mm | 0.45 m/s, 0° | - | - |
| 1778029069 | 0.56° C | 94% | 1012.7 hPa | 0.25 mm | 0.89 m/s, 0° | - | - |
| 1778028513 | 0.56° C | 94% | 1012.5 hPa | 0.25 mm | 0.89 m/s, 0° | - | - |
| 1778028032 | 0.56° C | 94% | 1012.7 hPa | 0.25 mm | 0.89 m/s, 338° | - | - |
| 1778027589 | 0.56° C | 94% | 1012.5 hPa | 0.25 mm | 0.89 m/s, 338° | - | - |
| 1778027541 | 0.56° C | 94% | 1012.5 hPa | 0.25 mm | 0.89 m/s, 338° | - | - |
| 1778026953 | 0.56° C | 94% | 1012.4 hPa | 0 mm | 0.45 m/s, 0° | - | - |
| 1778026458 | 0.56° C | 94% | 1012.3 hPa | 0 mm | 0.89 m/s, 315° | - | - |
| 1778025938 | 0.56° C | 94% | 1012.3 hPa | 0 mm | 0.45 m/s, 292° | - | - |
| 1778025365 | 0.56° C | 94% | 1012.1 hPa | 0 mm | 0.45 m/s, 0° | - | - |
| 1778024813 | 0.56° C | 94% | 1011.9 hPa | 0 mm | 0.45 m/s, 315° | - | - |
* Rain latest hour (hover to see other rain measurements)
** Current wind speed in m/s (hover to see current wind gust speed)